Spokane, WA

1:06 PM PDT on April 20, 2018 (GMT -0700)
Spokane International

Weather History for KGEG - September, 2011

Change the Weather History Date:

Friday, September 2, 2011

  Actual Average Record
Temperature  
Mean Temperature 59 °F 65 °F  
Max Temperature 73 °F 78 °F 97 °F (1988)
Min Temperature 45 °F 52 °F 37 °F (1999)
Degree Days  
Heating Degree Days 6 3  
Month to date heating degree days 12 6  
Since 1 July heating degree days 60 71  
Cooling Degree Days 0 3  
Month to date cooling degree days 0 6  
Year to date cooling degree days 321 417  
Growing Degree Days 9 (Base 50)    
Moisture  
Dew Point 33 °F    
Average Humidity 48    
Maximum Humidity 76    
Minimum Humidity 19    
Precipitation  
Precipitation 0.00 in 0.02 in 0.50 in (1890)
Month to date precipitation 0.00 0.04  
Year to date precipitation 11.79 10.15  
Snow  
Snow 0.00 in 0.00 in 0.00 in (2002)
Month to date snowfall 0.0 0.0  
Since 1 July snowfall 0.0 0.0  
Since 1 September snowfall 0.0 0.0  
Snow Depth 0.00 in    
Sea Level Pressure  
Sea Level Pressure 30.10 in    
Wind  
Wind Speed 7 mph (WNW)    
Max Wind Speed 16 mph    
Max Gust Speed 26 mph    
Visibility 10 miles    
Events      
T = Trace of Precipitation, MM = Missing Value Source: NWS Daily Summary

Daily Weather History Graph

Daily Weather History Graph

Search for Another Location

Airport or City:

Astronomy

Sep. 02, 2011 Rise Set
Actual Time 6:09 AM PDT 7:28 PM PDT
Civil Twilight 5:37 AM PDT 8:00 PM PDT
Nautical Twilight 4:59 AM PDT 8:39 PM PDT
Astronomical Twilight 4:17 AM PDT 9:20 PM PDT
Moon 12:19 PM PDT (9/2) 9:34 PM PDT (9/2)
Length of Visible Light 14h 22m
Length of Day
13h 19m
Waxing Crescent, 29% of the Moon is Illuminated
Sep 2
Waxing Crescent
Sep 4
First Quarter
Sep 12
Full
Sep 20
Last Quarter
Sep 27
New

Hourly Weather History & Observations

Time (PDT) Temp. Dew Point Humidity Pressure Visibility Wind Dir Wind Speed Gust Speed Precip Events Conditions
12:53 AM 57.9 °F 37.9 °F 47% 29.96 in 10.0 mi SW 13.8 mph - N/A   Scattered Clouds
1:53 AM 55.9 °F 37.9 °F 51% 29.95 in 10.0 mi SSW 11.5 mph - N/A   Partly Cloudy
2:53 AM 55.0 °F 39.0 °F 55% 29.95 in 10.0 mi SW 12.7 mph - N/A   Clear
3:53 AM 52.0 °F 41.0 °F 66% 29.97 in 10.0 mi WSW 9.2 mph - N/A   Clear
4:53 AM 50.0 °F 41.0 °F 71% 29.99 in 10.0 mi West 10.4 mph - N/A   Clear
5:53 AM 46.9 °F 39.9 °F 77% 30.01 in 10.0 mi WSW 6.9 mph - N/A   Partly Cloudy
6:53 AM 46.9 °F 39.9 °F 77% 30.05 in 10.0 mi WSW 6.9 mph - N/A   Scattered Clouds
7:53 AM 54.0 °F 39.9 °F 59% 30.07 in 10.0 mi WNW 5.8 mph - N/A   Partly Cloudy
8:53 AM 60.1 °F 37.0 °F 42% 30.09 in 10.0 mi WNW 5.8 mph - N/A   Partly Cloudy
9:53 AM 63.0 °F 33.1 °F 33% 30.10 in 10.0 mi NW 12.7 mph 17.3 mph N/A   Partly Cloudy
10:53 AM 64.9 °F 32.0 °F 29% 30.12 in 10.0 mi North 8.1 mph 19.6 mph N/A   Partly Cloudy
11:53 AM 66.2 °F 30.2 °F 26% 30.15 in 10.0 mi WNW 10.4 mph - N/A   Partly Cloudy
12:53 PM 69.1 °F 30.0 °F 23% 30.12 in 10.0 mi WSW 9.2 mph 18.4 mph N/A   Partly Cloudy
1:53 PM 70.0 °F 28.9 °F 22% 30.12 in 10.0 mi WNW 8.1 mph - N/A   Partly Cloudy
2:53 PM 71.1 °F 27.0 °F 19% 30.13 in 10.0 mi SW 6.9 mph - N/A   Partly Cloudy
3:53 PM 71.6 °F 28.4 °F 20% 30.15 in 10.0 mi West 8.1 mph - N/A   Partly Cloudy
4:53 PM 71.1 °F 28.0 °F 20% 30.13 in 10.0 mi West 5.8 mph - N/A   Partly Cloudy
5:53 PM 72.0 °F 28.0 °F 20% 30.13 in 10.0 mi NNE 6.9 mph - N/A   Partly Cloudy
6:53 PM 70.0 °F 30.0 °F 23% 30.14 in 10.0 mi NE 6.9 mph - N/A   Partly Cloudy
7:53 PM 66.2 °F 30.2 °F 26% 30.17 in 10.0 mi NE 4.6 mph - N/A   Clear
8:53 PM 64.0 °F 30.9 °F 29% 30.17 in 10.0 mi Calm Calm - N/A   Clear
9:53 PM 59.0 °F 30.9 °F 35% 30.19 in 10.0 mi North 4.6 mph - N/A   Clear
10:53 PM 57.2 °F 30.2 °F 36% 30.21 in 10.0 mi North 6.9 mph - N/A   Clear
11:53 PM 57.9 °F 30.9 °F 36% 30.21 in 10.0 mi Calm Calm - N/A   Clear